[[[{"header":{"parameterUnit":"kt","parameterCategory":2,"dx":1,"dy":1,"la1":30.253999710083008,"la2":30.299108505249023,"lo1":-89.0895004272461,"lo2":-89.04439544677734,"nx":28,"ny":28,"refTime":"2022-10-04T21:00:00:Z","depth":0,"parameterNumber":1,"parameterNumberName":"U-component_of_WINDS"},"data":[-0.9344,-0.9343,-0.9306,-0.9288,-0.9253,-0.9235,-0.9217,-0.919,-0.916,-0.9136,-0.9116,-0.9081,-0.9039,-0.9008,-0.8985,-0.8971,-0.8965,-0.8989,-0.8968,-0.8887,-0.8874,-0.8861,-0.8858,-0.8988,-0.8988,-0.9058,-0.9058,-0.9059,-0.9285,-0.925,-0.9229,-0.9186,-0.9168,-0.9122,-0.9084,-0.9073,-0.9059,-0.9023,-0.9001,-0.8978,-0.8955,-0.8904,-0.8877,-0.8877,-0.8855,-0.8872,-0.8873,-0.8867,-0.8778,-0.8776,-0.889,-0.889,-0.889,-0.889,-0.889,-0.889,-0.9169,-0.917,-0.9122,-0.9099,-0.9068,-0.9039,-0.9034,-0.899,-0.8971,-0.8938,-0.8899,-0.8884,-0.8842,-0.8793,-0.8769,-0.8756,-0.8731,-0.874,-0.8743,-0.8746,-0.8755,-0.866,-0.875,-0.875,-0.8749,-0.8749,-0.8749,0,-0.9073,-0.9042,-0.9021,-0.8988,-0.897,-0.8943,-0.8912,-0.8907,-0.8833,-0.8821,-0.8801,-0.8784,-0.875,-0.8729,-0.8697,-0.8669,-0.8623,-0.8614,-0.862,-0.8639,-0.866,-0.865,-0.8508,-0.8613,-0.8611,-0.8611,-0.861,-0.8609,-0.8954,-0.8959,-0.8892,-0.8882,-0.8856,-0.8841,-0.8825,-0.8759,-0.8745,-0.8698,-0.8703,-0.868,-0.8658,-0.8634,-0.8586,-0.8562,-0.854,-0.8584,-0.8537,-0.8553,-0.8542,-0.8543,-0.8543,-0.8595,-0.8597,-0.8599,-0.86,0,-0.889,-0.8831,-0.8828,-0.8762,-0.8745,-0.8755,-0.8699,-0.8698,-0.8656,-0.8649,-0.8644,-0.858,-0.8562,-0.8506,-0.8476,-0.8448,-0.8465,-0.8443,-0.8478,-0.8471,-0.8506,-0.8504,-0.8625,-0.8638,-0.8501,-0.8502,-0.8504,0,-0.8766,-0.8777,-0.8688,-0.869,-0.8698,-0.8631,-0.8642,-0.8608,-0.857,-0.8564,-0.8501,-0.8497,-0.8426,-0.8414,-0.8373,-0.8376,-0.8371,-0.835,-0.8339,-0.8356,-0.8359,-0.8351,-0.8345,-0.8313,-0.8312,-0.8312,-0.8311,0,-0.8674,-0.8639,-0.8641,-0.8624,-0.8555,-0.8558,-0.853,-0.8487,-0.8473,-0.8446,-0.8436,-0.841,-0.8397,-0.8378,-0.8325,-0.8295,-0.8328,-0.8276,-0.8307,-0.8308,-0.8319,-0.8319,-0.8438,-0.8311,-0.8311,-0.831,-0.831,0,-0.8566,-0.8538,-0.855,-0.849,-0.8484,-0.8486,-0.8455,-0.8443,-0.8403,-0.8376,-0.8355,-0.8307,-0.8305,-0.8257,-0.8254,-0.823,-0.8221,-0.82,-0.8201,-0.8199,-0.8148,-0.8224,-0.8342,-0.8353,-0.8195,-0.8194,-0.8193,0,-0.8477,-0.8473,-0.8415,-0.8429,-0.8419,-0.8347,-0.8348,-0.8315,-0.8279,-0.8267,-0.8227,-0.8215,-0.8167,-0.8156,-0.8161,-0.8121,-0.8153,-0.8115,-0.8101,-0.8102,-0.8114,-0.8222,-0.8254,-0.8322,-0.818,-0.8181,-0.8182,0,-0.8402,-0.8317,-0.8324,-0.8301,-0.8245,-0.8238,-0.8239,-0.8211,-0.8206,-0.8175,-0.8176,-0.8157,-0.812,-0.8102,-0.8061,-0.807,-0.8129,-0.803,-0.8028,-0.8051,-0.8169,-0.8199,-0.8211,-0.81,-0.8102,-0.8103,-0.8172,0,-0.8252,-0.8243,-0.8257,-0.8211,-0.8196,-0.8202,-0.8141,-0.8133,-0.8093,-0.8056,-0.8055,-0.8015,-0.7989,-0.7987,-0.7951,-0.7988,-0.7974,-0.7936,-0.7887,-0.7957,-0.7979,-0.7988,-0.7859,-0.7857,-0.7856,-0.7855,0,0,-0.8183,-0.8168,-0.8105,-0.8104,-0.8087,-0.8014,-0.8025,-0.8001,-0.7955,-0.7946,-0.7917,-0.7886,-0.7855,-0.7862,-0.7879,-0.7869,-0.787,-0.7849,-0.7924,-0.7932,-0.7939,-0.7963,-0.7973,-0.7852,-0.7852,-0.7851,-0.7851,0,-0.8116,-0.8082,-0.8093,-0.8065,-0.802,-0.7979,-0.7982,-0.7926,-0.7903,-0.7902,-0.7843,-0.7836,-0.7814,-0.7789,-0.7774,-0.7845,-0.7803,-0.7842,-0.79,-0.7911,-0.7921,-0.7929,-0.7955,-0.7965,-0.7847,-0.7847,-0.7847,0,-0.8031,-0.7988,-0.7987,-0.7945,-0.7916,-0.7909,-0.7841,-0.7837,-0.7832,-0.7755,-0.7756,-0.7726,-0.7688,-0.7702,-0.7706,-0.7681,-0.7746,-0.7715,-0.7723,-0.7723,-0.773,-0.7742,-0.7753,-0.7612,-0.7611,-0.7611,0,0,-0.7982,-0.7972,-0.7907,-0.7926,-0.7912,-0.7851,-0.7842,-0.7802,-0.7768,-0.7755,-0.7716,-0.7686,-0.7672,-0.7665,-0.7649,-0.7673,-0.766,-0.7689,-0.77,-0.7709,-0.7714,-0.7724,-0.7736,-0.7609,-0.7609,-0.7609,0,0,-0.7959,-0.7883,-0.7849,-0.7863,-0.7832,-0.7771,-0.7785,-0.7743,-0.7722,-0.7715,-0.765,-0.7639,-0.7651,-0.7625,-0.7602,-0.7631,-0.7583,-0.7587,-0.7647,-0.7661,-0.7671,-0.7678,-0.753,0,0,0,0,0,-0.7859,-0.7892,-0.7862,-0.7855,-0.7804,-0.7787,-0.778,-0.7726,-0.7692,-0.7705,-0.7665,-0.7621,-0.7599,-0.7577,-0.7572,-0.7599,-0.758,-0.7585,-0.759,-0.7673,-0.7687,-0.7699,0,0,0,0,0,0,-0.7856,-0.7848,-0.7861,-0.7802,-0.779,-0.7785,-0.7717,-0.7703,-0.7689,-0.7681,-0.7629,-0.7619,-0.7574,-0.7576,-0.7572,-0.7599,-0.7531,-0.7582,-0.7586,-0.759,-0.7678,-0.7689,-0.77,0,0,0,0,0,-0.7853,-0.7847,-0.7779,-0.7801,-0.779,-0.7726,-0.7715,-0.7703,-0.7692,-0.7631,-0.7619,-0.7652,-0.7576,-0.7569,-0.7573,-0.7602,-0.7533,-0.7531,-0.7585,-0.7588,-0.7591,-0.7683,0,0,0,0,0,0,-0.7851,-0.7836,-0.7775,-0.777,-0.7784,-0.7725,-0.7713,-0.7703,-0.7642,-0.7631,-0.7651,-0.7644,-0.7578,-0.7572,-0.7568,-0.7606,-0.7534,-0.7533,-0.7532,-0.7588,-0.759,-0.7593,0,0,0,0,0,0,-0.7839,-0.7832,-0.7773,-0.7755,-0.7747,-0.7724,-0.7714,-0.771,-0.7643,-0.7665,-0.7657,-0.7649,-0.7586,-0.7575,-0.7571,-0.7567,-0.7535,-0.7534,-0.7534,-0.7533,-0.759,-0.7592,0,0,0,0,0,0,-0.7835,-0.7829,-0.7756,-0.775,-0.7743,-0.7681,-0.772,-0.7671,-0.7625,-0.7669,-0.762,-0.7617,-0.7589,-0.7584,-0.7574,-0.7572,-0.7568,-0.7535,-0.7535,-0.7534,-0.7534,0,0,0,0,0,0,0,-0.7832,-0.7885,-0.7806,-0.7746,-0.774,-0.7722,-0.7721,-0.772,-0.7625,-0.7623,-0.762,-0.7618,-0.7541,-0.754,-0.7539,-0.7576,0,0,-0.7535,-0.7535,0,0,0,0,0,0,0,0,-0.7886,-0.7885,-0.7806,-0.7804,-0.7803,-0.7722,-0.7721,-0.772,-0.7624,-0.7623,-0.7621,-0.7619,-0.7541,-0.754,-0.7539,0,0,0,0,0,0,0,0,0,0,0,0,0,0,0,-0.7805,-0.7805,0,-0.7722,-0.7721,-0.772,-0.7624,-0.7623,-0.7621,-0.762,-0.754,-0.754,-0.7539,0,0,0,0,0,0,0,0,0,0,0,0,0,0,0,0,0,0,0,0,0,0,0,0,0,0,0,0,0,0,0,0,0,0,0,0,0,0,0,0,0,0,0,0,0,0,0,0,0,0,0,0,0,0,0,0,0,0,0,0,0,0,0,0,0,0,0,0,0]}],[{"header":{"parameterUnit":"kt","parameterCategory":2,"dx":1,"dy":1,"la1":30.253999710083008,"la2":30.299108505249023,"lo1":-89.0895004272461,"lo2":-89.04439544677734,"nx":28,"ny":28,"refTime":"2022-10-04T21:00:00:Z","depth":0,"parameterNumber":2,"parameterNumberName":"V-component_of_WINDS"},"data":[-2.3198,-2.3197,-2.3187,-2.3181,-2.3171,-2.3164,-2.3158,-2.315,-2.314,-2.313,-2.3123,-2.311,-2.3094,-2.3082,-2.3072,-2.3066,-2.3064,-2.3073,-2.3065,-2.3034,-2.3029,-2.3024,-2.3025,-2.3073,-2.3073,-2.31,-2.31,-2.31,-2.3185,-2.3176,-2.3168,-2.3154,-2.3148,-2.3134,-2.3121,-2.3116,-2.311,-2.3096,-2.3087,-2.3076,-2.3066,-2.3045,-2.3032,-2.3031,-2.3023,-2.3029,-2.3029,-2.3028,-2.2994,-2.2995,-2.3036,-2.3036,-2.3036,-2.3036,-2.3036,-2.3036,-2.3159,-2.3157,-2.3142,-2.3133,-2.3122,-2.3112,-2.3109,-2.3093,-2.3084,-2.307,-2.3055,-2.3047,-2.3029,-2.3005,-2.2993,-2.2986,-2.2977,-2.2979,-2.298,-2.2981,-2.2986,-2.2955,-2.2983,-2.2983,-2.2982,-2.2982,-2.2982,0,-2.3136,-2.3127,-2.3117,-2.3106,-2.3098,-2.3086,-2.3073,-2.307,-2.3043,-2.3036,-2.3025,-2.3016,-2.2998,-2.2986,-2.2969,-2.2955,-2.2937,-2.2932,-2.2934,-2.2943,-2.2955,-2.2952,-2.29,-2.2931,-2.293,-2.293,-2.293,-2.293,-2.311,-2.3107,-2.3084,-2.3079,-2.3068,-2.3059,-2.3051,-2.3026,-2.3019,-2.2998,-2.2996,-2.2983,-2.297,-2.2952,-2.293,-2.2915,-2.2906,-2.292,-2.2903,-2.2913,-2.291,-2.2911,-2.2912,-2.2924,-2.2925,-2.2926,-2.2926,0,-2.3097,-2.3077,-2.3068,-2.3042,-2.3036,-2.3035,-2.3012,-2.3008,-2.2991,-2.2982,-2.2978,-2.2951,-2.2938,-2.2913,-2.2892,-2.288,-2.2879,-2.2869,-2.2887,-2.2885,-2.2897,-2.2897,-2.2935,-2.294,-2.2887,-2.2888,-2.2888,0,-2.3067,-2.3063,-2.3033,-2.3028,-2.3025,-2.2999,-2.2996,-2.298,-2.2962,-2.2955,-2.293,-2.2923,-2.2891,-2.2881,-2.2861,-2.2856,-2.2851,-2.2841,-2.2836,-2.2845,-2.2846,-2.284,-2.2838,-2.2821,-2.2821,-2.2821,-2.2821,0,-2.305,-2.3027,-2.302,-2.3011,-2.298,-2.2978,-2.2965,-2.2943,-2.2934,-2.2917,-2.2911,-2.2893,-2.2883,-2.287,-2.2846,-2.2836,-2.2836,-2.2817,-2.2827,-2.2828,-2.2829,-2.2829,-2.2868,-2.2821,-2.2821,-2.2821,-2.2821,0,-2.3022,-2.3007,-2.2998,-2.2973,-2.2967,-2.2961,-2.2943,-2.2931,-2.291,-2.2897,-2.2883,-2.2862,-2.2852,-2.2837,-2.2823,-2.2818,-2.281,-2.2799,-2.2799,-2.2798,-2.2781,-2.2809,-2.2847,-2.2851,-2.2797,-2.2796,-2.2796,0,-2.301,-2.2994,-2.2971,-2.2962,-2.2951,-2.2925,-2.2917,-2.2898,-2.2881,-2.2868,-2.2848,-2.2833,-2.2815,-2.2806,-2.2803,-2.2781,-2.2788,-2.2779,-2.2763,-2.2763,-2.2773,-2.2808,-2.2821,-2.2841,-2.2793,-2.2793,-2.2794,0,-2.2997,-2.2959,-2.2958,-2.2947,-2.2917,-2.2905,-2.2896,-2.2875,-2.2869,-2.2848,-2.284,-2.2816,-2.2803,-2.2788,-2.2767,-2.2765,-2.2783,-2.275,-2.2749,-2.2759,-2.2788,-2.2801,-2.2805,-2.277,-2.277,-2.277,-2.2791,0,-2.2964,-2.2951,-2.2948,-2.2921,-2.2908,-2.2899,-2.287,-2.286,-2.2843,-2.2824,-2.281,-2.2783,-2.2759,-2.2754,-2.2735,-2.2738,-2.2734,-2.2718,-2.27,-2.2722,-2.2728,-2.273,-2.2694,-2.2693,-2.2692,-2.2692,0,0,-2.2959,-2.2939,-2.2911,-2.29,-2.2888,-2.2858,-2.2851,-2.2835,-2.2801,-2.2793,-2.2783,-2.2745,-2.2723,-2.2709,-2.2713,-2.2702,-2.27,-2.2692,-2.2711,-2.2713,-2.2715,-2.2723,-2.2725,-2.2691,-2.269,-2.269,-2.269,0,-2.2941,-2.292,-2.2913,-2.2896,-2.2868,-2.2847,-2.2846,-2.2811,-2.2798,-2.2782,-2.2756,-2.2743,-2.2711,-2.2693,-2.2679,-2.2694,-2.2674,-2.2688,-2.2708,-2.2706,-2.2709,-2.2711,-2.272,-2.2722,-2.2688,-2.2689,-2.2689,0,-2.2924,-2.29,-2.2893,-2.2861,-2.2841,-2.2828,-2.2804,-2.2789,-2.2779,-2.2743,-2.2727,-2.2708,-2.2679,-2.2667,-2.266,-2.2651,-2.2653,-2.2644,-2.2647,-2.2646,-2.2643,-2.2646,-2.265,-2.2606,-2.2606,-2.2606,0,0,-2.2912,-2.2898,-2.2862,-2.2854,-2.2844,-2.2812,-2.28,-2.2781,-2.2756,-2.2746,-2.272,-2.2696,-2.2677,-2.2665,-2.2645,-2.2636,-2.2629,-2.2636,-2.264,-2.2643,-2.2643,-2.2641,-2.2645,-2.2605,-2.2605,-2.2605,0,0,-2.2906,-2.2864,-2.2851,-2.2838,-2.2816,-2.2778,-2.2774,-2.2756,-2.2735,-2.2733,-2.2697,-2.2689,-2.2677,-2.2658,-2.2654,-2.2639,-2.2622,-2.2621,-2.2652,-2.2656,-2.266,-2.2665,-2.2623,0,0,0,0,0,-2.2871,-2.287,-2.2858,-2.2851,-2.2808,-2.2785,-2.2779,-2.2751,-2.2741,-2.2739,-2.2714,-2.2693,-2.265,-2.2646,-2.2639,-2.2643,-2.2598,-2.26,-2.2601,-2.2637,-2.2642,-2.2647,0,0,0,0,0,0,-2.2868,-2.286,-2.2858,-2.2821,-2.2811,-2.2785,-2.2761,-2.2754,-2.274,-2.2737,-2.2698,-2.2692,-2.2666,-2.2647,-2.2641,-2.2646,-2.2625,-2.2599,-2.26,-2.2601,-2.2639,-2.2643,-2.2647,0,0,0,0,0,-2.2866,-2.2859,-2.2797,-2.2821,-2.2812,-2.2774,-2.2761,-2.2754,-2.2743,-2.2704,-2.2697,-2.2723,-2.2667,-2.266,-2.2644,-2.2649,-2.2629,-2.2627,-2.26,-2.26,-2.2601,-2.2641,0,0,0,0,0,0,-2.2864,-2.2852,-2.2794,-2.279,-2.2819,-2.2775,-2.2767,-2.2755,-2.2711,-2.2704,-2.2727,-2.2725,-2.2667,-2.2662,-2.2657,-2.2652,-2.2632,-2.263,-2.2629,-2.26,-2.2601,-2.2601,0,0,0,0,0,0,-2.2856,-2.285,-2.2792,-2.2791,-2.2787,-2.2776,-2.2769,-2.275,-2.2711,-2.2736,-2.2733,-2.2727,-2.2675,-2.2663,-2.2659,-2.263,-2.2634,-2.2632,-2.2631,-2.263,-2.2601,-2.2601,0,0,0,0,0,0,-2.2853,-2.2847,-2.2792,-2.2789,-2.2785,-2.2741,-2.2758,-2.2715,-2.2712,-2.2739,-2.2711,-2.271,-2.2677,-2.2672,-2.2661,-2.2634,-2.2631,-2.2634,-2.2633,-2.2632,-2.2631,0,0,0,0,0,0,0,-2.285,-2.2893,-2.2817,-2.2787,-2.2784,-2.2756,-2.2755,-2.2754,-2.2712,-2.2711,-2.2711,-2.271,-2.2645,-2.2643,-2.2641,-2.2637,0,0,-2.2634,-2.2633,0,0,0,0,0,0,0,0,-2.2895,-2.2894,-2.2817,-2.2816,-2.2815,-2.2756,-2.2755,-2.2754,-2.2712,-2.2711,-2.2711,-2.271,-2.2645,-2.2643,-2.2641,0,0,0,0,0,0,0,0,0,0,0,0,0,0,0,-2.2817,-2.2816,0,-2.2756,-2.2755,-2.2754,-2.2712,-2.2711,-2.2711,-2.2711,-2.2644,-2.2643,-2.2641,0,0,0,0,0,0,0,0,0,0,0,0,0,0,0,0,0,0,0,0,0,0,0,0,0,0,0,0,0,0,0,0,0,0,0,0,0,0,0,0,0,0,0,0,0,0,0,0,0,0,0,0,0,0,0,0,0,0,0,0,0,0,0,0,0,0,0,0,0]}]]]